x

Halibut Bank (46146) Wave Buoy

2:00 - Wed 22nd Feb 2017 All times are PST. -8 hours from GMT.

  • Sig Wave height 0.3ft
  • Peak Period 2s
  • Wind
    9mph, 11mph gusts
  • Sea Temp 44°f
  • Air Temp 41°f
  • Sea Pressure 1020.6mb
  • Halibut Bank
  • Halibut Bank

More Historic Weather Station data

Upgrade to MSW Pro to gain access to the past 30 days of data for over 8000 Wavebouys and Weather Stations around the globe.

Join Pro

Comparision Forecast

View Surf forecast
   
mer. 02/22 2:00 0.3ft 2s 9 11 mph 1020.6mb 44f 41f
1:00 0.7ft 3s 9
mph
1020.2mb 44f 41f
12:00 1ft 3s 7 9 mph 1019.7mb 44f 42f
mar. 02/21 11:00 1.3ft 3s 9 13 mph 1019.6mb 44f 42f
10:00 1ft 3s 11 13 mph 1019.2mb 44f 43f
9:00 1ft 3s 13 16 mph 1018.5mb 44f 44f
8:00 1.3ft 3s 11 13 mph 1017.7mb 45f 44f
7:00 1.3ft 3s 11 13 mph 1017.2mb 45f 44f
6:00 1.3ft 3s 11 13 mph 1016.4mb 45f 44f
5:00 1.6ft 3s 13
mph
1015.6mb 45f 44f
4:00 1.6ft 4s 13 16 mph 1015mb 45f 44f
3:00 2ft 4s 13 18 mph 1014.4mb 45f 43f
2:00 2ft 4s 13 16 mph 1013.9mb 45f 42f
1:00 2.5ft 4s 16 18 mph 1013.5mb 45f 42f
12:00  -   -  18
mph
1013.2mb - 41f
11:00 2ft 4s 18 22 mph 1012.7mb 44f 41f
10:00 1.6ft 4s 16 18 mph 1011.9mb 44f 41f
9:00 2ft 4s 16 20 mph 1010.9mb 44f 41f
8:00 1.6ft 3s 16 22 mph 1010mb 44f 41f
7:00 1.6ft 3s 18 20 mph 1009mb 44f 41f
6:00 1.3ft 3s 18
mph
1008.2mb 44f 42f
5:00 1ft 2s 16 18 mph 1008.1mb 44f 42f
4:00 0.7ft 2s 13 16 mph 1008.4mb 44f 42f
3:00 0.3ft 2s 4 7 mph 1008.3mb 44f 41f
2:00 0.3ft 6s 4 7 mph 1008.1mb 44f 41f
1:00 0.3ft 3s 2 4 mph 1007.9mb 44f 43f
12:00 0.3ft 3s 4 7 mph 1008mb 44f 43f
lun. 02/20 11:00 0.7ft 3s 2 4 mph 1007.5mb 44f 43f
10:00 0.7ft 3s 4 7 mph 1006.9mb 44f 44f
9:00 1ft 3s 7
mph
1006.9mb 44f 44f
8:00 1.3ft 3s 9 11 mph 1006.5mb 44f 44f
7:00 1.3ft 4s 9 11 mph 1005.9mb 44f 44f
6:00 1.6ft 4s 11 13 mph 1005.4mb 44f 44f
5:00 2ft 4s 16 18 mph 1004.9mb 45f 44f
4:00 2ft 4s 18 22 mph 1004.1mb 46f 44f
3:00 2ft 4s 18 22 mph 1003.2mb 46f 44f
2:00 2ft 4s 20 22 mph 1002.6mb 45f 44f
1:00 1.3ft 3s 20 22 mph 1001.9mb 45f 44f
12:00 1.3ft 3s 16 20 mph 1001.4mb 45f 44f
11:00 0.7ft 2s 13 18 mph 1001.4mb 45f 44f
10:00 1ft 3s 13 16 mph 1001.2mb 45f 43f
9:00 0.7ft 2s 9 13 mph 1001mb 45f 43f
8:00 1ft 3s 4 7 mph 1000.8mb 45f 43f
7:00 1ft 3s 7 9 mph 1000.4mb 45f 44f
6:00 1.3ft 3s 11 13 mph 1000.7mb 45f 45f
5:00 1.6ft 3s 16 18 mph 1000.7mb 45f 44f
4:00 1.6ft 4s 13 16 mph 1001mb 45f 44f
3:00 2ft 4s 16 18 mph 1001.3mb 45f 45f
2:00 2ft 4s 16 18 mph 1001.5mb 45f 45f
1:00 2.5ft 4s 13 18 mph 1001.4mb 45f 45f
12:00 2.5ft 4s 18 22 mph 1000.9mb 45f 45f
dim. 02/19 11:00 2.5ft 4s 13 18 mph 1000.6mb 45f 45f
10:00 2.5ft 4s 18 22 mph 999.8mb 45f 45f
9:00 3ft 4s 18 22 mph 999.3mb 45f 45f
8:00 3ft 4s 22 25 mph 998.4mb 45f 45f
7:00 3ft 4s 22 25 mph 998.1mb 45f 46f
6:00 3.5ft 5s 22 27 mph 997.7mb 45f 46f
5:00 3ft 4s 22 27 mph 997mb 45f 46f
4:00 3ft 4s 20 22 mph 996.6mb 46f 46f
3:00 2.5ft 4s 22 27 mph 996.1mb 46f 45f
2:00 2.5ft 4s 20 27 mph 996mb 46f 45f
1:00 2.5ft 3s 22 25 mph 995.9mb 46f 44f
12:00 1.3ft 3s 20 25 mph 996.1mb 45f 44f
11:00 1.3ft 3s 16 20 mph 996mb 45f 44f
10:00 1.3ft 3s 16 18 mph 995.5mb 45f 44f
9:00 1.6ft 3s 13 16 mph 995.4mb 45f 44f
8:00 1.6ft 3s 16 18 mph 995.2mb 45f 44f
7:00 1.3ft 3s 13 16 mph 994.9mb 45f 45f
6:00 1.3ft 3s 16 18 mph 994.7mb 44f 44f
5:00 0.7ft 2s 18 20 mph 994.4mb 44f 44f
4:00 0.7ft 3s 7 9 mph 995mb 44f 41f
3:00 1ft 3s 13 16 mph 995.2mb 44f 42f
2:00 1ft 3s 13 16 mph 995.5mb 44f 43f
1:00 1ft 3s 16 18 mph 995.7mb 44f 43f
12:00 1ft 2s 13 16 mph 995.9mb 44f 43f
sam. 02/18 11:00 1ft 2s 13 16 mph 996mb 44f 43f
10:00 0.7ft 2s 11 13 mph 996.1mb 44f 43f
9:00 0.7ft 6s 11 13 mph 996.1mb 44f 43f